Content
SEND FEEDBACK

Daily
Averages
Monthly
Summary
United States of America

ASHEVILLE, NORTH CAROLINA


Home > North America > United States > North Carolina
Elevation: 2240 feet     Latitude: 35 36N     Longitude: 082 32W

WEATHER
 
SELECT A DAY
Number of Records: 226,157;   Date Range: 1/1/95 - 8/17/14
 
SHARE

PRINT THIS DATA

[ ← Previous Day ]
WEATHER ALMANAC - DECEMBER 25, 2013
[ Next Day → ]
[ °C ]   °F
Weather ElementAverageHighLow
Temperature26.7 °F37 °F (2:54 pm)18 °F (4:54 am)
Dewpoint13.8 °F18 °F (8:54 am)8.1 °F (11:54 am)
Humidity62.2 %88 % (4:54 am)34 % (2:54 pm)
Barometer30.41 in30.50 in (9:54 am)30.35 in (11:54 pm)
Wind Speed2.6 mph8.1 mph (10:54 am)
Weather ElementAverage
Visibility10 mi
Wind DirectionENE (51.3 °)

Weather ElementTotal
Precipitation---
Heating Degree Days37.5 (Base 65)
Averaged from 23 records on December 25, 2013
WEATHER CONDITIONS BREAKOUT
WIND DIRECTION BREAKOUT
WEATHER BY HOUR - DECEMBER 25, 2013
[ °C ]   °F
Local TimeTemperatureDewpointHumidityBarometerVisibilityWind DirectionWind SpeedGust SpeedPrecipitationEventsConditions
1:54 AM21.0 °F14.0 °F74 %30.40 in10.0 miCalmClear
2:54 AM19.9 °F15.1 °F81 %30.42 in10.0 miCalmClear
3:54 AM19.0 °F15.1 °F85 %30.41 in10.0 miCalmClear
4:54 AM18.0 °F15.1 °F88 %30.42 in10.0 miCalmClear
5:54 AM18.0 °F15.1 °F88 %30.44 in10.0 miCalmClear
6:54 AM18.0 °F15.1 °F88 %30.47 in10.0 miCalmClear
7:54 AM19.0 °F16.0 °F88 %30.48 in10.0 miCalmClear
8:54 AM21.9 °F18.0 °F85 %30.49 in10.0 miSSE (150°)5.8 mphClear
9:54 AM26.1 °F18.0 °F71 %30.50 in10.0 miSSE (160°)5.8 mphClear
10:54 AM28.9 °F15.1 °F56 %30.49 in10.0 miSouth (170°)8.1 mphClear
11:54 AM32.0 °F8.1 °F37 %30.45 in10.0 miSSE (150°)8.1 mphClear
12:54 PM34.0 °F9.0 °F35 %30.41 in10.0 miSouth (170°)6.9 mphClear
1:54 PM35.1 °F10.9 °F37 %30.38 in10.0 miCalmClear
2:54 PM37.0 °F10.9 °F34 %30.36 in10.0 miESE (120°)5.8 mphClear
3:54 PM37.0 °F10.9 °F34 %30.36 in10.0 miESE (120°)5.8 mphClear
4:54 PM36.0 °F10.9 °F36 %30.37 in10.0 miVariable3.5 mphClear
5:54 PM30.9 °F12.0 °F46 %30.38 in10.0 miVariable4.6 mphClear
6:54 PM30.9 °F10.0 °F42 %30.38 in10.0 miCalmClear
7:54 PM28.0 °F15.1 °F58 %30.38 in10.0 miCalmClear
8:54 PM28.0 °F12.9 °F53 %30.39 in10.0 miCalmClear
9:54 PM26.1 °F15.1 °F63 %30.39 in10.0 miCalmClear
10:54 PM24.1 °F17.1 °F75 %30.38 in10.0 miCalmClear
11:54 PM24.1 °F18.0 °F77 %30.35 in10.0 miSE (140°)4.6 mphClear
Hourly data recorded from KAVL, located miles away from Asheville, North Carolina







STORIES FROM OUR PARTNERS